Sivas, Turkey

3:51 PM +03 on February 27, 2017 (GMT +0300)
Sivas

Weather History for LTAR - September, 2012

Change the Weather History Date:

Monday, September 17, 2012

  Actual Average Record
Temperature  
Mean Temperature 70 °F -  
Max Temperature 90 °F 69 °F - ()
Min Temperature 49 °F 42 °F - ()
Cooling Degree Days 4    
Growing Degree Days 20 (Base 50)    
Moisture  
Dew Point 32 °F    
Average Humidity 32    
Maximum Humidity 63    
Minimum Humidity 4    
Precipitation  
Precipitation 0.00 in 0.03 in - ()
Sea Level Pressure  
Sea Level Pressure 30.05 in    
Wind  
Wind Speed 6 mph ()    
Max Wind Speed 18 mph    
Max Gust Speed -    
Visibility 9.0 miles    
Events      
T = Trace of Precipitation, MM = Missing Value Source: Averaged Metar Reports

Daily Weather History Graph

Daily Weather History Graph

Search for Another Location

Airport or City:

Trip Planner

Search our weather history database for the weather conditions in past years. The results will help you decide how hot, cold, wet, or windy it might be!

Date:

Astronomy

Sep. 17, 2012 Rise Set
Actual Time 6:15 AM EEST 6:37 PM EEST
Civil Twilight 5:48 AM EEST 7:04 PM EEST
Nautical Twilight 5:16 AM EEST 7:36 PM EEST
Astronomical Twilight 4:44 AM EEST 8:08 PM EEST
Moon 7:39 AM EEST (9/17) 7:06 PM EEST (9/17)
Length of Visible Light 13h 16m
Length of Day
12h 22m
New Moon, 2% of the Moon is Illuminated
Sep 17
New Moon
Sep 22
First Quarter
Sep 30
Full
Oct 8
Last Quarter
Oct 15
New

Hourly Weather History & Observations

Time (EEST) Temp. Dew Point Humidity Pressure Visibility Wind Dir Wind Speed Gust Speed Precip Events Conditions
12:50 AM 57.2 °F 32.0 °F 38% 30.06 in - ESE 8.1 mph - N/A   Clear
1:50 AM 59.0 °F 32.0 °F 36% 30.04 in - East 5.8 mph - N/A   Clear
2:50 AM 55.4 °F 32.0 °F 41% 30.04 in - ESE 4.6 mph - N/A   Clear
3:00 AM 54 °F 37 °F 41%  in 9 mi Calm Calm - -  
4:50 AM 53.6 °F 33.8 °F 47% 30.04 in - ESE 9.2 mph - N/A   Clear
5:50 AM 51.8 °F 32.0 °F 47% 30.04 in - ESE 10.4 mph - N/A   Clear
6:50 AM 55.4 °F 32.0 °F 41% 30.04 in - ESE 5.8 mph - N/A   Clear
7:50 AM 64.4 °F 30.2 °F 28% 30.04 in - East 10.4 mph - N/A   Clear
8:50 AM 68.0 °F 28.4 °F 23% 30.06 in - East 9.2 mph - N/A   Clear
9:00 AM 64 °F 35 °F 23%  in 9 mi Calm Calm - -  
9:50 AM 73.4 °F 28.4 °F 19% 30.06 in - East 8.1 mph - N/A   Clear
10:50 AM 77.0 °F 24.8 °F 14% 30.06 in - Variable 4.6 mph - N/A   Clear
11:50 AM 77.0 °F 28.4 °F 17% 30.06 in - South 6.9 mph - N/A   Clear
12:50 PM 78.8 °F 19.4 °F 11% 30.06 in - SW 5.8 mph - N/A   Clear
1:50 PM 80.6 °F 23.0 °F 12% 30.04 in - WSW 5.8 mph - N/A   Clear
2:50 PM 82.4 °F 24.8 °F 12% 30.04 in - West 11.5 mph - N/A   Clear
3:00 PM 88 °F 19 °F 4%  in 9 mi South 3.5 mph - -  
4:20 PM 80.6 °F 21.2 °F 11% 30.01 in - NW 8.1 mph - N/A   Clear
4:50 PM 80.6 °F 21.2 °F 11% 30.01 in - West 9.2 mph - N/A   Clear
5:50 PM 75.2 °F 33.8 °F 22% 30.04 in - NNW 18.4 mph - N/A   Clear
7:50 PM 64.4 °F 46.4 °F 52% 30.04 in - North 11.5 mph - N/A   Clear
8:50 PM 60.8 °F 48.2 °F 63% 30.06 in - North 8.1 mph - N/A   Clear
9:00 PM 70 °F 45 °F 29%  in 9 mi North 2.3 mph - -  
9:50 PM 57.2 °F 44.6 °F 63% 30.09 in - Variable 2.3 mph - N/A   Clear
10:50 PM 59.0 °F 46.4 °F 63% 30.09 in - NNW 5.8 mph - N/A   Clear
11:50 PM 57.2 °F 42.8 °F 59% 30.09 in - NNW 4.6 mph - N/A   Clear